Campo, CA

12:10 PM PDT on September 27, 2016 (GMT -0700)
Campo

Weather History for KCZZ - January, 2013

Change the Weather History Date:

Monday, January 28, 2013

  Actual Average Record
Temperature  
Mean Temperature 42 °F 49 °F  
Max Temperature 46 °F 63 °F 80 °F (1986)
Min Temperature 37 °F 35 °F 20 °F (1959)
Degree Days  
Heating Degree Days 23 16  
Month to date heating degree days 522 459  
Since 1 July heating degree days 1520 1565  
Cooling Degree Days 0 0  
Month to date cooling degree days 0 0  
Year to date cooling degree days 0 0  
Moisture  
Dew Point 32 °F    
Average Humidity 71    
Maximum Humidity 92    
Minimum Humidity 49    
Precipitation  
Precipitation 0.30 in 0.10 in 0.54 in (1957)
Month to date precipitation 2.03 2.69  
Year to date precipitation 2.03 2.69  
Since 1 July precipitation 6.50  
Snow  
Snow 0.00 in - - ()
Month to date snowfall 0.0  
Year to date snowfall 0.0  
Snow Depth 0.00 in    
Sea Level Pressure  
Sea Level Pressure 30.02 in    
Wind  
Wind Speed 11 mph (WSW)    
Max Wind Speed 21 mph    
Max Gust Speed 26 mph    
T = Trace of Precipitation, MM = Missing Value Source: NWS Daily Summary

Daily Weather History Graph

Daily Weather History Graph

Search for Another Location

Airport or City:

Trip Planner

Search our weather history database for the weather conditions in past years. The results will help you decide how hot, cold, wet, or windy it might be!

Date:

Astronomy

Jan. 28, 2013 Rise Set
Actual Time 6:42 AM PST 5:15 PM PST
Civil Twilight 6:16 AM PST 5:41 PM PST
Nautical Twilight 5:47 AM PST 6:11 PM PST
Astronomical Twilight 5:18 AM PST 6:40 PM PST
Moon 7:04 PM PST (1/28) 7:18 AM PST (1/28)
Length of Visible Light 11h 24m
Length of Day
10h 32m
Full, 97% of the Moon is Illuminated
Jan 28
Full
Feb 3
Last Quarter
Feb 9
New
Feb 17
First Quarter
Feb 25
Full

Hourly Weather History & Observations

Time (PST) Temp. Windchill Dew Point Humidity Pressure Visibility Wind Dir Wind Speed Gust Speed Precip Events Conditions
12:52 AM 39.9 °F 32.5 °F 36.0 °F 86% 29.95 in - WSW 12.7 mph 20.7 mph N/A   Unknown
1:52 AM 39.0 °F 31.0 °F 35.1 °F 86% 29.96 in - WSW 13.8 mph 19.6 mph 0.04 in   Unknown
2:52 AM 39.9 °F 33.9 °F 36.0 °F 86% 29.96 in - SW 9.2 mph - 0.16 in   Unknown
3:52 AM 41.0 °F 34.3 °F 37.0 °F 86% 29.96 in - SW 11.5 mph - N/A   Unknown
4:52 AM 39.9 °F 31.4 °F 36.0 °F 86% 29.95 in - SW 16.1 mph - N/A   Unknown
5:52 AM 39.9 °F 32.1 °F 37.0 °F 89% 29.96 in - SW 13.8 mph - N/A   Unknown
6:52 AM 39.9 °F 36.7 °F 37.0 °F 89% 29.98 in - South 4.6 mph - N/A   Unknown
7:52 AM 39.9 °F 35.1 °F 35.1 °F 83% 30.01 in - West 6.9 mph - 0.06 in   Unknown
8:52 AM 39.0 °F 32.8 °F 33.1 °F 79% 30.01 in - West 9.2 mph 21.9 mph 0.01 in   Unknown
9:52 AM 43.0 °F 38.8 °F 37.0 °F 80% 30.01 in - West 6.9 mph - 0.01 in   Unknown
10:52 AM 44.1 °F 39.0 °F 30.9 °F 60% 30.01 in - West 9.2 mph - N/A   Unknown
11:52 AM 44.1 °F 37.7 °F 34.0 °F 68% 30.01 in - WSW 12.7 mph 18.4 mph N/A   Unknown
12:52 PM 43.0 °F 39.5 °F 35.1 °F 74% 29.99 in - SW 5.8 mph - 0.02 in   Unknown
1:52 PM 43.0 °F 39.5 °F 35.1 °F 74% 30.00 in - South 5.8 mph - N/A   Unknown
2:13 PM 44.6 °F 37.4 °F 30.2 °F 57% 30.01 in - West 16.1 mph 23.0 mph N/A   Unknown
2:52 PM 46.0 °F 38.8 °F 28.9 °F 51% 29.99 in - WSW 18.4 mph 24.2 mph N/A   Unknown
3:52 PM 44.1 °F 37.7 °F 27.0 °F 51% 30.00 in - West 12.7 mph - N/A   Unknown
4:52 PM 43.0 °F 38.8 °F 28.9 °F 58% 30.02 in - West 6.9 mph - N/A   Unknown
5:52 PM 41.0 °F 35.8 °F 30.9 °F 67% 30.04 in - WSW 8.1 mph - N/A   Unknown
6:52 PM 39.0 °F 33.4 °F 30.9 °F 73% 30.06 in - West 8.1 mph - N/A   Unknown
7:52 PM 37.0 °F 34.5 °F 30.9 °F 79% 30.08 in - Variable 3.5 mph - N/A   Unknown
8:52 PM 32.0 °F 28.7 °F 28.9 °F 88% 30.11 in - Variable 3.5 mph - N/A   Unknown
9:52 PM 30.9 °F 27.5 °F 28.0 °F 89% 30.12 in - NNE 3.5 mph - N/A   Unknown
10:52 PM 30.0 °F 26.5 °F 27.0 °F 88% 30.12 in - Variable 3.5 mph - N/A   Unknown
11:52 PM 28.9 °F 21.9 °F 26.1 °F 89% 30.13 in - NE 6.9 mph - N/A   Unknown